Home   Weather   Küsnacht   Past weeks

Flag for Switzerland Past Weather in Küsnacht, Zurich, Switzerland — Yesterday and Last 2 Weeks

Now
25 °F

Chilly.


Feels Like: 19 °F
Forecast: 22 / 25 °F
Wind: 5 mph from Northeast

Location: Zuerich-Fluntern

Current Time: Jan 16, 2017 at 6:32:02 pm

Latest Report: Jan 16, 2017 at 5:00 pm


Visibility: N/A

Pressure: 30.27 "Hg

Humidity: 91%

Dew Point: 23 °F

Location of KüsnachtLocation

Past Weather in Küsnacht — Graph

°F

Küsnacht Temperature Yesterday

Maximum temperature yesterday: 31 °F (at 1:00 pm)
Minimum temperature yesterday: 26 °F (at 1:00 am)
Average temperature yesterday: 28 °F

High & Low Weather Summary for the Past Weeks

 TemperatureHumidityPressure
High41 °F (Jan 12, 2:00 pm)100% (Jan 1, 10:00 pm)30.74 "Hg (Jan 1, 10:00 pm)
Low10 °F (Jan 7, 4:00 am)65% (Jan 4, 11:00 am)29.55 "Hg (Jan 13, 12:00 am)
Average28 °F87%30.24 "Hg
* Reported Jan 1 5:00 pm — Jan 16 5:00 pm, Küsnacht, Weather by CustomWeather, © 2017

Note: Actual official high and low records may vary slightly from our data, if they occured in-between our weather recording intervals... More about our weather records

Advertising

Küsnacht Weather History for the Previous 24 Hours

Scroll right to see more
 ConditionsComfort  
Time TempWeatherWind HumidityBarometerVisibility
5:00 pm
Mon, Jan 16
25 °FChilly.5 mph91%30.27 "HgN/A
4:00 pm25 °FCold.5 mph89%30.26 "HgN/A
3:00 pm26 °FChilly.6 mph82%30.24 "HgN/A
2:00 pm28 °FChilly.7 mph70%30.22 "HgN/A
1:00 pm27 °FOvercast.7 mph75%30.24 "HgN/A
12:00 pm29 °FChilly.5 mph78%30.23 "HgN/A
11:00 am26 °FChilly.5 mph84%30.25 "HgN/A
10:00 am25 °FChilly.2 mph87%30.25 "HgN/A
9:00 am24 °FCold.1 mph91%30.25 "HgN/A
8:00 am24 °FCold.2 mph89%30.24 "HgN/A
7:00 am22 °FCold.3 mph95%30.24 "HgN/A
6:00 am24 °FCold.1 mph93%30.22 "HgN/A
5:00 am25 °FCold.1 mph94%30.22 "HgN/A
4:00 am24 °FCold.2 mph91%30.23 "HgN/A
3:00 am25 °FChilly.1 mph91%30.22 "HgN/A
2:00 am27 °FChilly.2 mph87%30.22 "HgN/A
1:00 am27 °FChilly.2 mph86%30.23 "HgN/A
12:00 am27 °FChilly.3 mph89%30.24 "HgN/A
11:00 pm
Sun, Jan 15
27 °FChilly.3 mph89%30.24 "HgN/A
10:00 pm28 °FChilly.3 mph87%30.24 "HgN/A
9:00 pm28 °FChilly.6 mph86%30.24 "HgN/A
8:00 pm28 °FChilly.3 mph86%30.25 "HgN/A
7:00 pm28 °FChilly.3 mph85%30.25 "HgN/A
6:00 pm28 °FChilly.5 mph84%30.24 "HgN/A
Weather by CustomWeather, © 2017

See weather overviewHow to use our weather pages